AirNav   Air Wisconsin pilot careers
 
 1114 users online  

8C6 Traer Municipal Airport
Traer, Iowa, USA

GOING TO TRAER?


FAA INFORMATION EFFECTIVE 15 AUGUST 2019

Location

FAA Identifier: 8C6
Lat/Long: 42-12-03.0000N 092-27-23.9000W
42-12.050000N 092-27.398333W
42.2008333,-92.4566389
(estimated)
Elevation: 892 ft. / 272 m (estimated)
Variation: 03E (1985)
From city: 1 mile NE of TRAER, IA
Time zone: UTC -5 (UTC -6 during Standard Time)
Zip code: 50675

Airport Operations

Airport use: Open to the public
Activation date: 05/1961
Control tower: no
ARTCC: CHICAGO CENTER
FSS: FORT DODGE FLIGHT SERVICE STATION
NOTAMs facility: FOD (NOTAM-D service available)
Attendance: UNATNDD
Wind indicator: lighted
Segmented circle: no
Lights: SS-SR

Airport Communications

CTAF: 122.9
WX AWOS-3 at VTI (19 nm E): 120.075 (319-472-3122)

Nearby radio navigation aids

VOR radial/distance  VOR name  Freq  Var
JWJr074/20.8ELMWOOD VOR/DME109.4001E
ALOr187/21.5WATERLOO VOR/DME112.2000E
CIDr297/35.3CEDAR RAPIDS VOR/DME114.1005E
TNUr046/38.4NEWTON VOR/DME112.5003E

 
NDB name  Hdg/Dist  Freq  Var  ID
WAPSIE236/27.120600EIIB .. .. -...

Airport Services

Parking: tiedowns
Airframe service: NONE
Powerplant service: NONE
Bottled oxygen: NONE
Bulk oxygen: NONE

Runway Information

Runway 17/35

Dimensions: 2555 x 100 ft. / 779 x 30 m
Surface: turf, in good condition
Runway edge lights: low intensity
Runway edge markings: 17/35 MARKED WITH YELLOW CONES.
Gradient: SOUTH
RUNWAY 17  RUNWAY 35
Latitude: 42-12.260862N42-11.840165N
Longitude: 092-27.393860W092-27.404377W
Elevation: 884.0 ft.891.0 ft.
Traffic pattern: leftright
Runway heading: 178 magnetic, 181 true358 magnetic, 001 true
Obstructions: 49 ft. trees, 980 ft. from runway, 180 ft. left of centerline, 20:1 slope to clear80 ft. tree, 1689 ft. from runway, 210 ft. right of centerline, 21:1 slope to clear

Airport Ownership and Management from official FAA records

Ownership: Publicly-owned
Owner: CITY OF TRAER
649 2ND ST
TRAER, IA 50675
Phone (319) 478-2580
Manager: CITY CLERK
649 2ND STREET
TRAER, IA 50675
Phone (319) 478-2580
ALSO JIM PIPPERT - 319-476-4353

Airport Operational Statistics

Aircraft based on the field: 8
Single engine airplanes: 8
    
Aircraft operations: avg 43/week *
51% local general aviation
49% transient general aviation
* for 12-month period ending 28 August 2017

Additional Remarks

SNOW RMVL DELAYED AT TIMES; CONFIRM RY COND PRIOR TO USE - CALL 319-478-2580
TURF RY SOFT DURING SPRING THAW.
PARALLEL TWY IS MKD AND LGTD ALONG EAST EDGE.
MOGAS AND 100LL FUEL AVBL FOR EMERG ONLY; CALL 319-476-4353.
FOR CD CTC CHICAGO ARTCC AT 630-906-8921.

Instrument Procedures

There are no published instrument procedures at 8C6.

Some nearby airports with instrument procedures:

KVTI - Vinton Veterans Memorial Airpark (19 nm E)
KTZT - Belle Plaine Municipal Airport (21 nm S)
KMIW - Marshalltown Municipal Airport (21 nm W)
KALO - Waterloo Regional Airport (22 nm N)
KIIB - Independence Municipal Airport (27 nm NE)
 
Loc | Ops | Rwys | IFR | FBO | Links
Com | Nav | Svcs | Stats | Notes
Area around 8C6 (Traer Municipal Airport)
 
Road maps at: MapQuest Bing Google
 
Aerial photo
No photo
 
Sectional chart

 
Airport distance calculator
Flying to Traer Municipal Airport? Find the distance to fly.

From to 8C6

Sunrise and sunset
Times for 17-Aug-2019
 Local
(UTC-5)
 Zulu
(UTC)
Morning civil twilight05:5010:50
Sunrise06:2011:20
Sunset20:0701:07
Evening civil twilight20:3701:37

Current date and time
Zulu (UTC)  17-Aug-2019 18:24:17
Local (UTC-5)  17-Aug-2019 13:24:17
 
METAR
KVTI 
19nm E 
171755Z AUTO 10009KT 10SM CLR 27/20 A2985 RMK AO2 T02660195 10266 20146
KMIW 
21nm W 
171753Z AUTO 16003KT 10SM SCT037 BKN055 25/20 A2985 RMK AO2 SLP102 T02500200 10256 20150 53001
KALO 
21nm N 
171754Z 13009KT 10SM FEW120 27/17 A2984 RMK AO2 SLP100 T02670172 10267 20139 56008
KIIB 
27nm NE 
171755Z AUTO 12009KT 10SM CLR 26/19 A2986 RMK AO2 T02590194
KGGI 
32nm SW 
171755Z AUTO 19011G16KT 10SM BKN050 25/19 A2989 RMK AO2 T02530185 10261 20181
KOLZ 
35nm NE 
171755Z AUTO 11009KT 10SM FEW120 23/20 A2987 RMK A01
KCID 
38nm SE 
171752Z 12009KT 10SM CLR 26/20 A2985 RMK AO2 SLP104 60000 T02610200 10261 20178 55005
TAF
KALO 
21nm N 
171734Z 1718/1818 14010KT P6SM SCT015 BKN150 FM180800 16009KT P6SM VCTS OVC050CB FM181200 21007KT P6SM OVC070 FM181500 25007KT P6SM BKN030
NOTAMs
Click for the latest NOTAMs
NOTAMs are issued by the DoD/FAA and will open in a separate window not controlled by AirNav.

 

 
 

Would you like to see your business listed on this page?

 If your business provides an interesting product or service to pilots, flight crews, aircraft, or users of the Traer Municipal Airport, you should consider listing it here.  To start the listing process, click on the button below
 
Add a business
 

Other Pages about Traer Municipal Airport

Page from the Iowa Airport Directory
 
Update a link
 
Copyright © AirNav, LLC. All rights reserved. Privacy Policy  Contact